When you browse on this site, cookies collect data to enhance your experience and personalize the content and advertising you see.
Visit our Privacy Policy to learn more. By continuing to use the site, you agree to this use of cookies and data.
  • In Switzerland
  • List of Countries
  • For 7 days
  • Water Temperature
  • Weather Map
  • Weather Widgets
  • user-avatar
    Login

    Hourly Weather Pecs

    Today, 8 April, Wednesday

    Time Temperature Precipitation Wind Pressure Humidity
    00:00 +8°C° 0 mm 1 mps 755 mmHg 46%
    01:00 +7°C° 0 mm 1 mps 755 mmHg 46%
    02:00 +7°C° 0 mm 1 mps 755 mmHg 45%
    03:00 +7°C° 0 mm 1 mps 754 mmHg 44%
    04:00 +6°C° 0 mm 1 mps 754 mmHg 44%
    05:00 +7°C° 0 mm 1 mps 754 mmHg 44%
    06:00 +8°C° 0 mm 1 mps 754 mmHg 45%
    07:00 +10°C° 0 mm 1 mps 755 mmHg 45%
    08:00 +12°C° 0 mm 1 mps 754 mmHg 41%
    09:00 +14°C° 0 mm 1 mps 754 mmHg 37%
    10:00 +16°C° 0 mm 2 mps 754 mmHg 33%
    11:00 +16°C° 0 mm 2 mps 754 mmHg 33%
    12:00 +17°C° 0 mm 2 mps 753 mmHg 32%
    13:00 +18°C° 0 mm 2 mps 753 mmHg 32%
    14:00 +18°C° 0 mm 2 mps 752 mmHg 33%
    15:00 +18°C° 0 mm 2 mps 751 mmHg 33%
    16:00 +18°C° 0 mm 2 mps 751 mmHg 34%
    17:00 +16°C° 0 mm 1 mps 751 mmHg 39%
    18:00 +14°C° 0 mm 1 mps 750 mmHg 44%
    19:00 +11°C° 0 mm 0 mps 750 mmHg 49%
    20:00 +10°C° 0 mm 0 mps 750 mmHg 51%
    21:00 +10°C° 0 mm 0 mps 750 mmHg 53%
    22:00 +9°C° 0 mm 0 mps 750 mmHg 54%
    23:00 +8°C° 0 mm 0 mps 750 mmHg 55%

    Tomorrow, 9 April, Thursday

    Time Temperature Precipitation Wind Pressure Humidity
    00:00 +8°C° 0 mm 0 mps 750 mmHg 57%
    01:00 +8°C° 0 mm 0 mps 750 mmHg 58%
    02:00 +7°C° 0 mm 0 mps 749 mmHg 59%
    03:00 +7°C° 0 mm 0 mps 749 mmHg 60%
    04:00 +7°C° 0 mm 0 mps 749 mmHg 62%
    05:00 +8°C° 0 mm 0 mps 749 mmHg 60%
    06:00 +9°C° 0 mm 0 mps 749 mmHg 58%
    07:00 +10°C° 0 mm 0 mps 749 mmHg 56%
    08:00 +12°C° 0 mm 0 mps 749 mmHg 51%
    09:00 +14°C° 0 mm 0 mps 749 mmHg 46%
    10:00 +17°C° 0 mm 0 mps 749 mmHg 41%
    11:00 +18°C° 0 mm 0 mps 749 mmHg 38%
    12:00 +20°C° 0 mm 1 mps 748 mmHg 35%
    13:00 +21°C° 0 mm 1 mps 748 mmHg 32%
    14:00 +21°C° 0 mm 1 mps 748 mmHg 32%
    15:00 +21°C° 0 mm 1 mps 747 mmHg 32%
    16:00 +21°C° 0 mm 1 mps 747 mmHg 32%
    17:00 +19°C° 0 mm 1 mps 747 mmHg 37%
    18:00 +16°C° 0 mm 1 mps 747 mmHg 42%
    19:00 +14°C° 0 mm 1 mps 746 mmHg 47%
    20:00 +13°C° 0 mm 1 mps 747 mmHg 48%
    21:00 +12°C° 0 mm 1 mps 747 mmHg 50%
    22:00 +12°C° 0 mm 2 mps 747 mmHg 51%
    23:00 +10°C° 0 mm 2 mps 747 mmHg 52%

    Day after tomorrow, 10 April, Friday

    Time Temperature Precipitation Wind Pressure Humidity
    00:00 +10°C° 0 mm 2 mps 747 mmHg 53%
    01:00 +10°C° 0 mm 2 mps 747 mmHg 54%
    02:00 +9°C° 0 mm 2 mps 747 mmHg 58%
    03:00 +9°C° 0 mm 2 mps 747 mmHg 61%
    04:00 +8°C° 0 mm 2 mps 747 mmHg 65%
    05:00 +9°C° 0 mm 2 mps 748 mmHg 66%
    06:00 +10°C° 0 mm 2 mps 748 mmHg 66%
    07:00 +11°C° 0 mm 3 mps 748 mmHg 67%
    08:00 +13°C° 0 mm 3 mps 748 mmHg 62%
    09:00 +16°C° 0 mm 3 mps 749 mmHg 56%
    10:00 +18°C° 0 mm 3 mps 749 mmHg 51%
    11:00 +19°C° 0 mm 3 mps 749 mmHg 48%
    12:00 +19°C° 0 mm 4 mps 749 mmHg 46%
    13:00 +20°C° 0 mm 4 mps 748 mmHg 44%
    14:00 +20°C° 0 mm 4 mps 748 mmHg 44%
    15:00 +19°C° 0 mm 4 mps 748 mmHg 44%
    16:00 +19°C° 0 mm 4 mps 748 mmHg 44%
    17:00 +17°C° 0 mm 3 mps 748 mmHg 51%
    18:00 +15°C° 0 mm 2 mps 748 mmHg 57%
    19:00 +13°C° 0 mm 2 mps 748 mmHg 64%
    20:00 +12°C° 0 mm 2 mps 748 mmHg 65%
    21:00 +12°C° 0 mm 2 mps 748 mmHg 66%
    22:00 +10°C° 0 mm 2 mps 748 mmHg 67%
    23:00 +10°C° 0 mm 2 mps 748 mmHg 64%

    11 April, Saturday

    Time Temperature Precipitation Wind Pressure Humidity
    00:00 +10°C° 0 mm 1 mps 748 mmHg 62%
    01:00 +10°C° 0 mm 1 mps 748 mmHg 59%
    02:00 +9°C° 0 mm 1 mps 749 mmHg 59%
    03:00 +9°C° 0 mm 1 mps 749 mmHg 58%
    04:00 +9°C° 0 mm 1 mps 749 mmHg 58%
    05:00 +9°C° 0 mm 1 mps 749 mmHg 59%
    06:00 +10°C° 0 mm 1 mps 749 mmHg 61%
    07:00 +10°C° 0 mm 1 mps 749 mmHg 62%
    08:00 +12°C° 0 mm 1 mps 749 mmHg 59%
    09:00 +13°C° 0 mm 1 mps 750 mmHg 55%
    10:00 +15°C° 0 mm 1 mps 750 mmHg 51%
    11:00 +16°C° 0 mm 1 mps 750 mmHg 48%
    12:00 +18°C° 0 mm 1 mps 749 mmHg 45%
    13:00 +20°C° 0 mm 1 mps 749 mmHg 42%
    14:00 +19°C° 0 mm 1 mps 749 mmHg 41%
    15:00 +19°C° 0 mm 1 mps 748 mmHg 41%
    16:00 +18°C° 0 mm 2 mps 748 mmHg 40%
    17:00 +16°C° 0 mm 1 mps 748 mmHg 44%
    18:00 +15°C° 0 mm 1 mps 748 mmHg 48%
    19:00 +13°C° 0 mm 1 mps 748 mmHg 52%
    20:00 +12°C° 0 mm 1 mps 748 mmHg 55%
    21:00 +11°C° 0 mm 1 mps 748 mmHg 58%
    22:00 +10°C° 0 mm 1 mps 748 mmHg 61%
    23:00 +10°C° 0 mm 1 mps 748 mmHg 64%

    12 April, Sunday

    Time Temperature Precipitation Wind Pressure Humidity
    00:00 +9°C° 0 mm 1 mps 748 mmHg 68%
    01:00 +9°C° 0 mm 1 mps 748 mmHg 71%
    02:00 +9°C° 0 mm 1 mps 748 mmHg 72%
    03:00 +7°C° 0 mm 2 mps 748 mmHg 74%
    04:00 +7°C° 0 mm 2 mps 747 mmHg 75%
    05:00 +8°C° 0 mm 2 mps 748 mmHg 73%
    06:00 +9°C° 0 mm 2 mps 748 mmHg 71%
    07:00 +10°C° 0 mm 2 mps 748 mmHg 69%
    08:00 +13°C° 0 mm 2 mps 747 mmHg 63%
    09:00 +14°C° 0 mm 3 mps 747 mmHg 57%
    10:00 +17°C° 0 mm 3 mps 747 mmHg 51%
    11:00 +18°C° 0 mm 3 mps 746 mmHg 49%
    12:00 +19°C° 0 mm 3 mps 746 mmHg 46%
    13:00 +19°C° 0 mm 3 mps 746 mmHg 43%
    14:00 +19°C° 0 mm 3 mps 745 mmHg 44%
    15:00 +19°C° 0 mm 3 mps 744 mmHg 45%
    16:00 +19°C° 0 mm 3 mps 744 mmHg 46%
    17:00 +17°C° 0 mm 3 mps 743 mmHg 51%
    18:00 +14°C° 0 mm 3 mps 743 mmHg 56%
    19:00 +14°C° 0 mm 2 mps 742 mmHg 61%
    20:00 +13°C° 0 mm 2 mps 742 mmHg 62%
    21:00 +11°C° 0 mm 3 mps 742 mmHg 63%
    22:00 +11°C° 0 mm 3 mps 742 mmHg 64%
    23:00 +10°C° 0 mm 3 mps 742 mmHg 65%

    13 April, Monday

    Time Temperature Precipitation Wind Pressure Humidity
    00:00 +10°C° 0 mm 3 mps 742 mmHg 67%
    01:00 +10°C° 0 mm 2 mps 741 mmHg 69%
    02:00 +9°C° 0 mm 2 mps 741 mmHg 72%
    03:00 +9°C° 0 mm 2 mps 741 mmHg 75%
    04:00 +8°C° 0 mm 2 mps 741 mmHg 78%
    05:00 +9°C° 0 mm 2 mps 741 mmHg 75%
    06:00 +12°C° 0 mm 2 mps 741 mmHg 72%
    07:00 +13°C° 0 mm 2 mps 741 mmHg 69%
    08:00 +14°C° 0 mm 3 mps 741 mmHg 63%
    09:00 +17°C° 0 mm 4 mps 741 mmHg 56%
    10:00 +19°C° 0 mm 5 mps 741 mmHg 50%
    11:00 +20°C° 0 mm 5 mps 740 mmHg 46%
    12:00 +21°C° 0 mm 6 mps 740 mmHg 42%
    13:00 +21°C° 0 mm 6 mps 740 mmHg 37%
    14:00 +21°C° 0 mm 6 mps 739 mmHg 39%
    15:00 +21°C° 0 mm 6 mps 739 mmHg 40%
    16:00 +21°C° 0 mm 5 mps 738 mmHg 41%
    17:00 +19°C° 0 mm 5 mps 738 mmHg 46%
    18:00 +17°C° 0 mm 4 mps 738 mmHg 51%
    19:00 +14°C° 0 mm 3 mps 738 mmHg 56%
    20:00 +13°C° 0 mm 3 mps 738 mmHg 59%
    21:00 +12°C° 0 mm 4 mps 738 mmHg 63%
    22:00 +11°C° 0 mm 4 mps 738 mmHg 66%
    23:00 +11°C° 0 mm 4 mps 738 mmHg 67%
    Show more